Temp
8 8 7 7 9 10 10 10 11 13 13 13 13 12 11 11 12 11 10 10 9 8 8 8 8 8 8 8 8 8 8 8 8 8 8 8 8 9 8 8 8 8 8 8
8 8 7 7 8 8 9 9 10 12 13 13 12 11 11 12 11 11 10 9 8 7 8 7 8 9 9 8 8 8 7 8 8 8 8 8 8 8 7 7 7 7 8 7
6 7 7 7 7 7 8 9 9 11 12 12 11 10 10 10 10 10 10 9 9 8 8 8 8 8 8 8 8 8 8 8 8 7 8 8 8 8 7 7 7 8 8 7
6 7 5 7 6 8 7 8 9 10 11 11 9 10 10 10 10 10 9 8 8 9 9 8 8 9 9 8 8 8 8 7 7 8 8 7 8 8 8 8 8 7 7 8
6 6 6 7 6 8 7 8 9 10 10 10 9 10 10 10 9 9 9 9 8 8 8 8 8 9 8 8 7 8 7 8 8 8 7 8 8 7 8 8 8 8 8 8
6 5 4 7 7 7 7 7 8 9 10 9 9 10 9 8 9 10 10 10 9 9 9 9 9 8 8 7 7 7 7 7 7 8 8 8 8 7 7 7 8 8 8 8
6 6 6 6 6 6 6 8 8 9 9 8 8 9 9 8 8 9 9 10 9 9 9 9 9 9 8 8 8 8 7 7 7 8 7 7 7 7 7 7 7 7 8 8
5 5 6 6 5 6 7 7 7 8 8 8 8 8 8 8 8 9 9 9 9 8 9 9 9 9 8 8 8 7 7 7 7 7 7 7 6 8 8 7 7 8 7 8
5 5 6 6 6 6 6 6 7 7 8 7 8 7 8 8 8 8 8 8 8 8 8 8 8 9 9 9 7 7 7 6 7 6 6 6 7 7 8 7 7 7 7 6
5 6 5 5 6 5 5 6 6 6 6 6 7 7 7 7 7 6 7 7 7 7 7 8 8 8 8 8 8 7 6 7 7 6 6 6 6 6 7 6 6 5 5 5
5 5 5 5 5 5 5 5 5 6 5 5 5 5 5 6 6 6 6 6 6 6 6 7 7 7 7 7 7 6 6 6 6 6 5 5 6 6 5 5 5 4 5 4
5 5 5 5 5 5 5 5 4 5 5 5 4 4 5 5 5 5 5 5 5 5 5 5 6 6 5 5 5 5 5 5 5 5 5 4 4 4 4 4 4 5 4 4
6 5 5 5 5 4 5 4 5 4 4 4 4 3 4 4 5 5 5 5 5 5 4 5 5 5 5 5 5 5 5 5 5 5 4 4 4 4 4 4 4 4 4 4
5 5 5 5 5 4 4 4 5 5 4 4 4 3 3 3 4 3 3 4 4 4 4 4 4 4 4 4 4 4 4 4 4 3 3 3 3 3 3 3 3 3 3 3
5 5 5 5 4 4 4 4 4 4 4 4 4 3 3 2 2 2 3 3 3 3 3 3 3 3 3 3 2 2 2 2 2 2 2 2 2 2 2 2 2 2 2 2
5 5 4 4 4 4 3 3 3 3 3 3 3 3 2 1 1 1 2 2 2 2 2 2 2 2 2 2 2 2 1 2 2 1 1 1 1 1 1 1 1 1 1 1
5 5 4 4 4 4 3 3 3 2 2 2 2 2 1 2 2 2 2 2 2 2 2 3 3 3 2 2 2 2 2 1 1 2 2 1 1 1 1 0 0 0 -0 -0
4 4 4 4 5 4 3 3 2 2 2 2 1 1 1 2 2 2 2 3 3 2 3 3 3 3 3 3 3 3 3 2 2 2 1 1 1 0 0 -0 -1 -1 -1 -2
4 4 4 4 4 4 3 2 2 2 2 1 1 1 1 1 1 1 1 2 2 2 2 3 3 2 2 2 2 2 2 1 1 1 1 0 0 -0 -1 -1 -2 -2 -2 -2
4 3 3 3 4 3 2 2 2 1 1 1 0 0 -0 -0 -0 -0 0 1 1 2 2 2 2 2 2 2 2 1 1 1 0 -0 -0 -1 -1 -1 -1 -2 -2 -3 -3 -4
3 3 3 3 3 3 2 2 1 1 1 0 0 -0 -0 -0 -0 0 1 1 2 2 2 2 2 2 1 1 1 0 -0 -0 -0 -0 -1 -1 -1 -2 -2 -3 -3 -3 -4 -4
3 3 3 3 2 2 2 1 1 1 0 0 -0 -1 -0 -0 0 1 1 1 1 1 1 1 1 1 1 0 -0 -0 -0 -1 -1 -1 -1 -1 -2 -2 -2 -3 -4 -4 -4 -4
3 3 3 3 2 2 1 1 0 0 0 -0 -1 -1 -1 -0 0 1 1 1 1 0 0 0 0 -0 -1 -1 -1 -1 -1 -1 -1 -2 -2 -2 -3 -3 -3 -4 -5 -5 -5 -5
4 3 2 2 2 1 1 1 0 -1 -1 -1 -0 -0 -0 -0 -0 0 0 1 0 -0 0 0 -1 -1 -2 -2 -2 -2 -2 -2 -2 -3 -3 -3 -3 -4 -5 -5 -5 -5 -5 -5
4 3 2 2 1 1 1 -0 -0 -1 -1 -1 -1 -1 -1 0 -0 -0 -0 -1 -0 -1 -0 -1 -2 -3 -3 -3 -3 -3 -3 -3 -3 -4 -4 -4 -4 -5 -5 -5 -5 -5 -5 -5
4 4 3 1 1 1 0 -0 -1 -2 -1 -2 -1 -0 -0 -0 -1 -1 -1 -1 -1 -1 -2 -2 -3 -3 -4 -4 -4 -4 -4 -4 -4 -4 -5 -5 -5 -4 -4 -5 -6 -6 -6 -6
3 3 2 1 1 0 -0 -1 -1 -1 -1 -1 -0 -0 -0 -1 -1 -1 -1 -2 -3 -3 -3 -4 -4 -4 -4 -4 -4 -4 -5 -5 -5 -5 -5 -5 -5 -5 -4 -5 -6 -6 -6 -6
Height
3133 3134 3133 3136 3128 3127 3127 3128 3129 3130 3129 3128 3126 3128 3130 3133 3134 3135 3135 3139 3143 3150 3157 3159 3165 3173 3178 3180 3184 3186 3188 3191 3193 3195 3198 3199 3199 3201 3201 3205 3205 3206 3209 3210
3128 3130 3131 3129 3126 3127 3125 3125 3126 3127 3128 3126 3124 3126 3129 3131 3133 3137 3139 3143 3145 3146 3154 3159 3166 3169 3171 3173 3174 3179 3180 3182 3183 3186 3190 3193 3193 3196 3195 3198 3200 3200 3202 3204
3125 3128 3124 3127 3129 3128 3126 3125 3125 3125 3126 3125 3126 3126 3128 3131 3134 3138 3140 3142 3145 3149 3152 3155 3157 3162 3164 3166 3168 3170 3173 3175 3177 3180 3185 3189 3188 3190 3191 3191 3191 3194 3196 3196
3123 3125 3128 3125 3127 3128 3127 3125 3124 3124 3123 3124 3126 3127 3128 3130 3133 3137 3139 3142 3145 3147 3151 3153 3156 3159 3159 3159 3161 3164 3167 3170 3172 3175 3178 3180 3182 3187 3187 3187 3188 3191 3193 3195
3122 3120 3123 3124 3124 3125 3126 3127 3124 3123 3122 3122 3124 3127 3128 3130 3132 3135 3137 3140 3142 3143 3146 3150 3153 3154 3155 3157 3157 3158 3159 3164 3167 3168 3172 3175 3178 3180 3181 3183 3186 3188 3190 3190
3120 3120 3119 3119 3119 3120 3125 3125 3124 3122 3122 3124 3128 3128 3129 3131 3133 3134 3135 3136 3138 3140 3143 3146 3148 3150 3150 3152 3155 3155 3156 3158 3161 3166 3171 3171 3172 3173 3175 3180 3182 3184 3186 3187
3117 3118 3118 3117 3117 3119 3126 3129 3124 3122 3123 3125 3128 3131 3131 3131 3135 3136 3135 3135 3134 3136 3139 3141 3144 3146 3148 3149 3149 3151 3152 3153 3155 3161 3165 3165 3166 3168 3171 3176 3180 3182 3183 3183
3115 3116 3117 3115 3118 3120 3123 3123 3123 3123 3123 3125 3127 3129 3131 3133 3133 3135 3136 3135 3135 3135 3135 3138 3140 3143 3144 3145 3147 3147 3148 3151 3152 3156 3143 3157 3163 3167 3169 3171 3174 3176 3177 3177
3115 3114 3114 3114 3116 3118 3120 3122 3123 3123 3123 3124 3129 3130 3130 3130 3130 3131 3132 3134 3135 3136 3136 3137 3139 3140 3143 3143 3144 3145 3147 3148 3151 3150 3152 3158 3164 3165 3167 3168 3169 3169 3170 3171
3114 3113 3113 3114 3116 3119 3121 3122 3123 3124 3125 3126 3127 3127 3129 3129 3129 3129 3129 3130 3132 3133 3136 3137 3138 3140 3142 3143 3143 3144 3146 3147 3149 3151 3155 3157 3160 3161 3163 3163 3164 3164 3165 3166
3113 3113 3114 3115 3118 3120 3122 3123 3124 3125 3126 3127 3128 3127 3128 3128 3128 3129 3130 3132 3134 3135 3136 3137 3138 3139 3140 3141 3142 3143 3144 3145 3147 3148 3151 3153 3156 3158 3159 3160 3160 3160 3160 3160
3112 3112 3115 3117 3118 3119 3121 3122 3124 3125 3126 3127 3128 3129 3129 3128 3129 3129 3130 3131 3132 3133 3135 3137 3137 3139 3140 3139 3140 3141 3141 3143 3146 3147 3149 3151 3153 3153 3154 3154 3154 3153 3153 3153
3112 3112 3114 3116 3118 3119 3120 3121 3121 3123 3125 3127 3128 3128 3129 3129 3129 3130 3131 3130 3130 3131 3133 3134 3135 3136 3137 3138 3139 3140 3141 3141 3142 3144 3145 3145 3146 3148 3149 3148 3147 3149 3148 3148
3110 3111 3113 3115 3117 3118 3120 3121 3121 3121 3123 3125 3126 3127 3128 3128 3130 3130 3129 3130 3130 3130 3131 3132 3133 3134 3136 3137 3138 3139 3140 3141 3142 3142 3143 3143 3143 3142 3142 3142 3143 3143 3144 3144
3109 3111 3113 3114 3115 3117 3119 3120 3121 3121 3122 3123 3125 3126 3126 3127 3129 3129 3130 3130 3130 3131 3131 3131 3132 3133 3134 3134 3134 3135 3135 3136 3136 3136 3137 3138 3138 3137 3138 3137 3137 3137 3137 3137
3107 3108 3110 3111 3113 3115 3117 3118 3119 3120 3120 3121 3122 3124 3126 3127 3127 3127 3128 3129 3130 3131 3131 3131 3131 3131 3131 3131 3131 3131 3130 3130 3130 3130 3131 3131 3130 3129 3129 3128 3128 3128 3128 3129
3103 3105 3107 3107 3109 3111 3114 3116 3118 3118 3118 3119 3121 3123 3124 3124 3125 3126 3126 3126 3125 3125 3126 3127 3128 3128 3128 3128 3128 3127 3127 3127 3125 3124 3124 3122 3121 3121 3120 3120 3119 3119 3119 3118
3101 3102 3104 3105 3106 3108 3110 3113 3116 3117 3118 3119 3119 3120 3121 3122 3123 3123 3123 3123 3123 3123 3123 3123 3122 3122 3121 3120 3120 3120 3119 3118 3117 3116 3115 3114 3113 3111 3110 3110 3110 3111 3110 3109
3096 3098 3100 3101 3103 3105 3108 3111 3113 3115 3116 3117 3118 3119 3120 3121 3121 3122 3122 3121 3120 3120 3120 3119 3118 3117 3115 3113 3111 3110 3109 3108 3107 3106 3104 3103 3101 3100 3100 3099 3099 3099 3099 3098
3091 3094 3096 3097 3098 3101 3104 3107 3110 3111 3113 3114 3115 3116 3116 3117 3117 3117 3117 3117 3117 3117 3116 3114 3113 3112 3110 3108 3106 3104 3102 3100 3099 3097 3096 3094 3092 3091 3090 3088 3087 3086 3085 3085
3086 3089 3091 3093 3095 3097 3101 3105 3107 3108 3110 3111 3112 3111 3112 3112 3112 3112 3112 3111 3110 3109 3108 3108 3107 3105 3103 3101 3099 3097 3095 3094 3092 3091 3089 3087 3085 3083 3080 3078 3075 3074 3073 3074
3081 3083 3086 3089 3092 3094 3097 3100 3103 3105 3106 3107 3108 3108 3108 3108 3107 3107 3107 3106 3104 3103 3102 3101 3099 3097 3096 3095 3093 3092 3091 3089 3087 3084 3082 3079 3077 3074 3071 3068 3065 3064 3063 3062
3076 3079 3082 3084 3088 3091 3094 3096 3099 3101 3102 3103 3103 3103 3103 3103 3102 3102 3102 3101 3100 3100 3099 3097 3095 3093 3092 3090 3090 3089 3087 3085 3082 3080 3077 3074 3070 3066 3062 3059 3056 3054 3053 3052
3072 3074 3078 3081 3084 3087 3089 3091 3094 3096 3097 3097 3098 3098 3098 3098 3098 3098 3098 3097 3096 3096 3095 3093 3091 3090 3088 3087 3086 3084 3082 3080 3077 3074 3070 3066 3062 3057 3053 3050 3049 3047 3046 3045
3068 3070 3073 3076 3079 3082 3085 3087 3089 3090 3091 3092 3092 3092 3092 3092 3093 3093 3093 3094 3093 3092 3091 3089 3087 3086 3085 3083 3082 3080 3077 3075 3072 3069 3065 3061 3057 3052 3046 3041 3040 3040 3040 3039
3064 3066 3068 3072 3075 3077 3080 3082 3084 3085 3086 3087 3088 3088 3088 3088 3088 3088 3089 3089 3089 3088 3086 3085 3084 3083 3081 3079 3077 3075 3073 3071 3069 3065 3062 3058 3053 3047 3039 3034 3032 3033 3033 3033
3060 3061 3063 3066 3069 3072 3074 3077 3078 3080 3081 3081 3082 3083 3084 3084 3085 3085 3085 3085 3084 3083 3082 3081 3080 3079 3078 3076 3074 3072 3070 3068 3066 3063 3059 3055 3050 3044 3036 3030 3028 3028 3028 3027
Wind_Speed
11 6 6 7 3 1 8 12 10 16 17 15 11 7 8 10 9 8 7 10 28 32 32 22 31 30 31 32 32 28 28 30 34 28 25 24 25 22 30 25 21 19 19 18
10 12 10 9 12 12 6 5 4 10 14 13 8 9 10 11 9 11 18 17 13 17 30 27 29 28 30 30 35 28 24 28 30 31 27 19 23 25 14 24 25 26 24 22
14 12 10 15 15 12 8 7 6 6 9 6 3 7 9 9 8 9 15 20 14 16 23 23 23 22 25 29 28 27 24 23 27 26 24 28 17 14 13 13 10 18 23 25
8 13 5 10 23 19 13 15 12 8 5 7 12 15 14 11 9 10 13 16 23 20 19 16 17 21 19 24 25 24 25 28 26 25 29 21 16 14 12 11 10 10 4 9
7 9 5 10 19 26 14 11 9 6 7 14 17 14 12 12 12 10 12 15 16 20 30 31 31 30 25 20 15 23 23 30 31 18 19 19 17 15 14 12 14 13 11 10
8 2 4 7 12 21 7 10 4 1 7 11 11 11 10 10 8 7 7 12 20 21 22 23 22 28 32 16 16 18 20 26 25 20 24 21 20 18 18 18 13 14 13 10
10 5 5 7 11 14 10 5 7 7 10 12 9 8 6 4 3 4 3 4 6 16 21 20 18 19 18 22 19 22 17 24 27 33 22 19 18 19 18 18 14 15 18 17
7 5 5 9 12 9 5 11 6 8 10 8 8 7 5 1 5 3 4 6 3 3 7 13 17 20 21 21 23 21 17 21 26 35 22 16 14 15 10 15 20 22 23 21
4 4 5 9 10 10 7 7 7 7 7 11 7 6 7 6 5 13 15 2 2 2 1 3 6 10 12 16 16 15 13 12 13 27 10 11 18 22 18 19 20 20 21 21
1 5 1 5 6 10 8 4 5 12 8 6 8 10 9 9 6 13 13 15 12 7 6 5 5 7 8 9 10 12 13 14 19 16 20 25 22 15 17 19 20 18 17 17
4 2 5 9 10 9 6 5 7 7 5 7 12 11 6 3 2 2 7 13 8 5 5 6 5 5 4 5 6 6 7 9 11 12 15 19 23 19 22 24 25 20 19 19
5 3 3 6 8 6 4 2 5 5 5 9 10 5 4 3 0 1 2 5 6 4 5 7 8 8 6 5 5 6 6 7 7 8 9 11 13 14 16 16 18 19 20 20
3 3 6 2 3 1 4 5 1 9 8 7 10 9 6 3 1 5 5 1 4 8 8 7 7 8 10 11 11 11 12 12 12 13 13 14 15 15 15 15 16 16 16 17
7 5 8 4 2 2 3 3 3 4 11 11 9 9 8 5 5 10 8 6 2 1 4 9 11 12 13 14 14 15 15 16 17 17 17 18 18 19 19 20 20 21 21 22
9 9 4 7 9 8 5 2 2 4 7 11 11 10 8 6 7 9 5 5 4 2 2 5 8 9 10 12 14 15 16 18 19 20 21 22 23 24 26 27 28 29 29 29
11 7 10 9 9 8 6 3 4 0 3 6 9 9 8 8 7 6 6 5 7 8 9 10 11 12 13 15 15 16 18 19 18 21 24 25 27 29 31 32 32 32 32 33
14 10 10 10 10 9 7 5 4 2 3 7 9 10 9 8 8 8 10 11 12 14 14 14 15 15 16 18 19 21 23 26 30 30 30 31 34 33 32 32 33 33 32 32
15 13 11 8 9 10 10 9 5 2 4 4 5 5 5 6 7 9 12 13 13 13 14 16 18 20 20 21 21 23 25 27 29 31 31 31 32 34 36 37 35 34 33 33
13 13 14 14 11 12 12 10 9 6 7 4 4 6 9 11 11 14 15 12 13 16 18 19 20 22 23 25 26 27 28 29 30 31 33 34 35 35 36 36 37 40 40 40
14 16 18 15 14 15 16 14 11 11 11 8 9 12 12 14 17 16 16 16 16 15 17 18 19 21 23 24 26 26 27 28 28 28 29 30 32 34 36 36 36 36 35 36
18 20 18 16 13 18 18 16 15 13 13 12 13 15 17 18 17 17 16 16 16 17 16 17 18 20 20 19 20 19 16 14 14 16 19 22 25 28 31 34 36 35 35 37
18 19 17 17 15 16 18 17 16 15 16 17 18 19 18 18 18 16 16 17 19 18 18 19 19 18 16 13 11 12 14 17 19 21 23 24 25 27 31 33 33 34 33 34
17 17 17 17 17 15 14 14 17 18 18 16 19 20 20 20 18 17 16 17 17 17 17 16 16 13 12 12 13 14 16 17 18 21 22 22 23 26 28 27 27 26 27 28
15 17 17 15 16 17 16 14 14 17 19 19 18 16 18 19 18 17 16 15 16 17 15 14 11 10 12 12 13 14 15 17 20 21 21 23 25 28 30 27 25 23 23 23
13 16 18 19 18 17 14 15 15 14 15 14 16 18 18 17 16 16 16 16 17 13 12 11 10 11 12 13 14 15 18 20 19 20 20 20 22 26 29 26 25 23 20 19
12 14 17 17 17 17 16 16 15 15 16 18 19 17 17 17 17 16 16 15 14 10 9 8 9 9 10 12 15 15 14 15 17 17 18 21 24 28 29 20 19 22 21 20
15 16 18 20 20 19 17 16 17 18 20 19 17 17 16 17 16 16 16 13 11 9 7 8 9 11 11 15 15 13 13 12 14 15 18 20 24 26 30 17 12 15 17 17
Wind_Direction
230 188 169 274 334 241 227 240 213 219 266 286 303 201 199 197 191 153 193 203 215 209 213 224 213 219 230 233 232 235 232 241 244 254 240 252 237 260 220 222 229 224 228 236
220 241 244 296 342 319 312 257 259 222 243 283 303 195 181 191 171 164 148 150 153 190 207 221 217 231 239 233 228 229 247 249 240 233 221 251 226 245 231 223 242 225 232 231
210 256 284 263 265 322 332 331 340 236 211 243 229 176 178 188 191 182 185 178 172 174 201 219 221 225 228 236 245 244 248 230 233 231 227 222 214 239 247 242 245 244 246 231
271 230 189 243 248 258 306 320 338 340 217 190 162 172 176 185 207 218 205 208 217 211 220 215 228 230 252 249 250 248 240 243 248 254 256 211 197 220 233 232 219 209 208 255
238 226 229 224 226 240 284 296 324 319 180 160 169 197 196 194 194 202 217 211 217 220 230 234 242 247 249 265 263 259 243 241 250 238 190 191 216 236 240 224 214 217 226 237
256 268 218 254 224 219 253 246 324 6 187 171 198 207 172 163 167 185 205 220 215 214 224 232 239 246 251 251 244 256 246 236 208 189 205 223 237 243 238 222 219 227 235 260
236 228 253 240 200 208 219 230 162 132 144 162 203 224 228 174 158 113 146 203 224 218 221 227 234 240 242 230 241 249 248 247 207 205 225 238 233 244 232 226 238 253 257 256
235 228 242 216 190 198 194 168 124 129 126 153 149 146 151 211 208 166 136 126 125 157 201 230 236 232 234 236 243 253 254 212 240 213 234 215 247 262 247 237 238 249 253 254
235 249 263 208 219 224 155 124 137 147 132 125 138 150 175 199 219 233 226 207 75 38 358 222 209 218 231 231 238 249 241 195 248 203 264 230 227 253 254 247 244 247 249 252
292 338 116 166 181 145 138 114 131 135 113 162 175 200 197 226 260 214 229 237 254 283 292 274 235 226 221 229 240 247 230 226 217 227 225 227 242 242 230 241 264 268 247 249
295 289 150 124 127 112 105 109 132 144 118 144 157 171 158 166 160 168 212 225 239 187 226 245 247 244 241 227 226 228 232 235 235 231 223 224 222 232 232 249 262 263 257 258
308 299 194 136 108 98 74 121 178 175 180 170 167 182 192 204 309 205 231 241 249 233 208 211 205 215 219 214 224 227 228 226 225 227 230 233 238 245 249 253 246 251 257 256
326 179 174 132 133 85 14 1 163 187 188 205 184 209 227 246 42 39 36 52 256 251 252 245 241 238 239 242 244 245 243 242 244 243 243 243 247 248 249 252 253 254 254 254
216 210 211 242 257 288 341 357 91 161 182 197 207 215 239 259 321 346 353 24 50 290 254 254 257 258 257 257 259 258 254 249 246 244 246 249 249 251 253 256 260 261 260 262
209 220 233 239 233 250 281 319 64 166 182 202 208 218 246 276 302 299 279 292 310 313 317 295 288 285 285 288 281 273 270 268 268 268 268 268 268 268 268 268 269 271 273 273
234 220 217 232 233 240 256 301 336 71 161 185 198 211 228 248 261 282 295 283 270 275 281 281 284 280 272 272 274 273 274 276 282 283 279 276 274 272 270 270 271 272 274 275
236 248 257 255 238 245 263 271 302 125 103 144 159 176 196 219 243 271 287 290 293 296 295 292 290 287 287 286 284 279 274 276 277 282 281 278 278 281 279 276 272 270 271 273
244 260 249 262 248 241 247 251 244 245 296 160 155 187 228 252 274 310 301 283 284 288 291 293 293 292 289 285 281 279 278 278 279 281 281 280 278 275 271 270 270 269 269 270
223 239 257 270 246 225 227 237 228 240 252 265 258 274 271 274 282 296 295 286 286 290 292 292 293 295 295 294 294 292 290 289 288 287 286 286 285 284 283 278 271 267 268 268
227 237 249 259 231 225 221 227 225 237 252 253 256 273 270 273 285 283 280 278 279 280 284 286 291 294 293 291 290 289 290 292 293 292 291 290 289 285 282 281 279 275 264 262
224 233 248 242 224 207 207 220 228 230 248 254 260 258 273 275 276 284 283 285 291 298 296 298 301 301 298 294 293 295 299 303 306 305 303 299 295 294 290 288 283 278 270 264
229 233 228 225 218 205 205 215 224 231 236 244 252 262 266 268 277 281 292 302 306 307 310 311 307 305 303 299 292 295 301 305 309 310 308 305 303 300 296 291 285 278 275 268
226 220 217 211 210 206 212 214 223 226 237 242 254 257 258 266 277 288 294 299 299 302 302 303 304 301 295 293 298 304 308 311 315 315 309 307 309 308 303 295 290 285 281 273
212 213 210 212 208 214 220 225 222 229 243 251 258 259 266 273 276 281 287 290 293 294 299 303 310 301 299 304 309 311 313 318 323 322 319 318 316 313 304 293 286 287 287 282
217 212 212 213 215 221 228 225 234 243 249 262 272 278 277 274 272 279 282 281 280 287 299 314 322 307 302 306 311 314 315 321 324 327 334 335 331 326 320 299 282 281 281 285
226 222 213 215 224 230 224 230 248 243 242 261 271 268 270 269 270 272 273 269 272 288 304 329 327 323 325 329 325 322 322 322 325 331 337 336 335 334 332 306 278 270 281 277
234 226 215 214 216 214 218 230 236 250 267 269 263 260 256 256 262 262 263 262 272 290 301 310 325 326 329 335 339 323 316 322 329 341 343 343 341 348 355 340 294 277 276 283